Weather History for PAWG - September, 2012

Change the Weather History Date:

Friday, September 28, 2012

  Actual Average Record
Temperature  
Mean Temperature 50 °F -  
Max Temperature 53 °F 53 °F 66 °F (1976)
Min Temperature 48 °F 42 °F 23 °F (1971)
Degree Days  
Heating Degree Days 14    
Moisture  
Dew Point 45 °F    
Average Humidity 82    
Maximum Humidity 87    
Minimum Humidity 71    
Precipitation  
Precipitation 0.00 in - - ()
Sea Level Pressure  
Sea Level Pressure 29.89 in    
Wind  
Wind Speed 8 mph (ESE)    
Max Wind Speed 15 mph    
Max Gust Speed 21 mph    
Visibility 10 miles    
Events      
Averages and records for this station are not official NWS values.
T = Trace of Precipitation, MM = Missing Value Source: NWS Daily Summary

Daily Weather History Graph

Daily Weather History Graph

Search for Another Location

Airport or City:

Trip Planner

Search our weather history database for the weather conditions in past years. The results will help you decide how hot, cold, wet, or windy it might be!

Date:

Astronomy

Sep. 28, 2012 Rise Set
Actual Time 6:48 AM AKDT 6:30 PM AKDT
Civil Twilight 6:10 AM AKDT 7:07 PM AKDT
Nautical Twilight 5:26 AM AKDT 7:51 PM AKDT
Astronomical Twilight 4:40 AM AKDT 8:37 PM AKDT
Moon 5:37 PM AKDT 5:19 AM AKDT
Length of Visible Light 12h 57m
Length of Day
11h 42m
Waxing Gibbous, 98% of the Moon is Illuminated
Sep 28
Waxing Gibbous
Sep 29
Full
Oct 7
Last Quarter
Oct 15
New
Oct 21
First Quarter

Hourly Weather History & Observations

Time (AKDT) Temp. Dew Point Humidity Pressure Visibility Wind Dir Wind Speed Gust Speed Precip Events Conditions
12:16 AM 48.2 °F 44.6 °F 87% 29.83 in 10.0 mi SSE 3.5 mph - N/A   Overcast
12:36 AM 50.0 °F 44.6 °F 82% 29.83 in 10.0 mi SSE 9.2 mph - N/A   Overcast
12:56 AM 50.0 °F 44.6 °F 82% 29.82 in 10.0 mi SE 10.4 mph - N/A   Overcast
1:16 AM 50.0 °F 44.6 °F 82% 29.83 in 10.0 mi SSE 5.8 mph - N/A   Overcast
1:36 AM 50.0 °F 44.6 °F 82% 29.83 in 10.0 mi ESE 9.2 mph - N/A   Overcast
1:56 AM 48.2 °F 44.6 °F 87% 29.83 in 9.0 mi East 11.5 mph - N/A   Mostly Cloudy
2:16 AM 48.2 °F 44.6 °F 87% 29.84 in 10.0 mi Calm Calm - N/A   Overcast
2:36 AM 48.2 °F 44.6 °F 87% 29.83 in 10.0 mi SSE 5.8 mph - N/A   Overcast
2:56 AM 48.2 °F 44.6 °F 87% 29.84 in 7.0 mi Calm Calm - N/A   Overcast
3:16 AM 48.2 °F 44.6 °F 87% 29.83 in 10.0 mi East 6.9 mph - N/A   Overcast
3:36 AM 48.2 °F 44.6 °F 87% 29.83 in 10.0 mi East 9.2 mph - N/A   Overcast
3:56 AM 48.2 °F 44.6 °F 87% 29.83 in 10.0 mi East 11.5 mph - N/A   Overcast
4:16 AM 48.2 °F 44.6 °F 87% 29.83 in 10.0 mi Calm Calm - N/A   Overcast
4:36 AM 48.2 °F 44.6 °F 87% 29.84 in 6.0 mi West 4.6 mph - N/A   Overcast
4:56 AM 48.2 °F 44.6 °F 87% 29.83 in 5.0 mi East 6.9 mph - N/A   Overcast
5:16 AM 48.2 °F 44.6 °F 87% 29.84 in 10.0 mi East 5.8 mph - N/A   Overcast
5:36 AM 48.2 °F 44.6 °F 87% 29.84 in 10.0 mi East 10.4 mph - N/A   Mostly Cloudy
5:56 AM 48.2 °F 44.6 °F 87% 29.84 in 10.0 mi East 9.2 mph - N/A   Mostly Cloudy
6:16 AM 48.2 °F 44.6 °F 87% 29.85 in 10.0 mi East 8.1 mph - N/A   Mostly Cloudy
6:36 AM 48.2 °F 44.6 °F 87% 29.85 in 10.0 mi ESE 8.1 mph - N/A   Mostly Cloudy
6:56 AM 48.2 °F 44.6 °F 87% 29.85 in 10.0 mi ENE 4.6 mph - N/A   Mostly Cloudy
7:16 AM 48.2 °F 44.6 °F 87% 29.85 in 10.0 mi East 10.4 mph - N/A   Mostly Cloudy
7:36 AM 50.0 °F 44.6 °F 82% 29.86 in 10.0 mi ESE 6.9 mph - N/A   Mostly Cloudy
7:56 AM 50.0 °F 44.6 °F 82% 29.86 in 10.0 mi SE 6.9 mph 16.1 mph N/A   Mostly Cloudy
8:16 AM 50.0 °F 42.8 °F 76% 29.87 in 10.0 mi SSE 4.6 mph - N/A   Mostly Cloudy
8:36 AM 51.8 °F 44.6 °F 76% 29.88 in 10.0 mi SE 6.9 mph - N/A   Mostly Cloudy
8:56 AM 51.8 °F 44.6 °F 76% 29.88 in 10.0 mi SSE 5.8 mph - N/A   Mostly Cloudy
9:16 AM 51.8 °F 44.6 °F 76% 29.88 in 10.0 mi ESE 12.7 mph 16.1 mph N/A   Mostly Cloudy
9:36 AM 51.8 °F 42.8 °F 71% 29.89 in 10.0 mi SE 12.7 mph 18.4 mph N/A   Mostly Cloudy
9:56 AM 51.8 °F 42.8 °F 71% 29.89 in 10.0 mi SE 11.5 mph - N/A   Overcast
10:16 AM 51.8 °F 44.6 °F 76% 29.89 in 10.0 mi SE 11.5 mph - N/A   Overcast
10:36 AM 51.8 °F 44.6 °F 76% 29.90 in 10.0 mi ESE 10.4 mph 17.3 mph N/A   Overcast
10:56 AM 51.8 °F 42.8 °F 71% 29.90 in 10.0 mi SE 13.8 mph - N/A   Overcast
11:16 AM 51.8 °F 44.6 °F 76% 29.90 in 10.0 mi ESE 12.7 mph 18.4 mph N/A   Overcast
11:36 AM 51.8 °F 44.6 °F 76% 29.90 in 10.0 mi ESE 11.5 mph - N/A   Overcast
11:56 AM 51.8 °F 44.6 °F 76% 29.90 in 10.0 mi SE 12.7 mph - N/A   Overcast
12:16 PM 51.8 °F 44.6 °F 76% 29.90 in 10.0 mi SE 12.7 mph - N/A   Overcast
12:36 PM 51.8 °F 44.6 °F 76% 29.90 in 10.0 mi ESE 12.7 mph 18.4 mph N/A   Overcast
12:56 PM 51.8 °F 44.6 °F 76% 29.90 in 10.0 mi SE 11.5 mph - N/A   Overcast
1:16 PM 51.8 °F 44.6 °F 76% 29.90 in 10.0 mi SE 13.8 mph 20.7 mph N/A   Overcast
1:36 PM 53.6 °F 44.6 °F 72% 29.90 in 10.0 mi ESE 15.0 mph - N/A   Overcast
1:56 PM 53.6 °F 44.6 °F 72% 29.90 in 10.0 mi ESE 12.7 mph - N/A   Overcast
2:16 PM 51.8 °F 44.6 °F 76% 29.90 in 10.0 mi SE 15.0 mph 19.6 mph N/A   Overcast
2:36 PM 51.8 °F 44.6 °F 76% 29.90 in 10.0 mi SE 15.0 mph - N/A   Overcast
2:56 PM 51.8 °F 44.6 °F 76% 29.91 in 10.0 mi SSE 8.1 mph 17.3 mph N/A   Overcast
3:16 PM 51.8 °F 44.6 °F 76% 29.91 in 10.0 mi SSE 9.2 mph - N/A   Overcast
3:36 PM 51.8 °F 44.6 °F 76% 29.91 in 10.0 mi SE 8.1 mph - N/A   Overcast
3:56 PM 51.8 °F 44.6 °F 76% 29.91 in 10.0 mi SE 5.8 mph - N/A   Mostly Cloudy
4:16 PM 51.8 °F 44.6 °F 76% 29.92 in 10.0 mi Calm Calm - N/A   Mostly Cloudy
4:36 PM 51.8 °F 46.4 °F 82% 29.93 in 10.0 mi Calm Calm - N/A   Mostly Cloudy
4:56 PM 50.0 °F 46.4 °F 87% 29.93 in 10.0 mi ENE 3.5 mph - N/A   Overcast
5:16 PM 50.0 °F 46.4 °F 87% 29.92 in 10.0 mi East 5.8 mph - N/A   Overcast
5:36 PM 50.0 °F 46.4 °F 87% 29.91 in 10.0 mi ESE 9.2 mph - N/A   Overcast
5:56 PM 50.0 °F 46.4 °F 87% 29.91 in 10.0 mi East 11.5 mph 16.1 mph N/A   Overcast
6:16 PM 50.0 °F 46.4 °F 87% 29.92 in 10.0 mi ESE 9.2 mph - N/A   Overcast
6:36 PM 50.0 °F 44.6 °F 82% 29.92 in 10.0 mi ESE 5.8 mph - N/A   Overcast
6:56 PM 50.0 °F 44.6 °F 82% 29.92 in 10.0 mi East 9.2 mph - N/A   Overcast
7:16 PM 48.2 °F 44.6 °F 87% 29.92 in 10.0 mi SE 3.5 mph - N/A   Overcast
7:36 PM 50.0 °F 46.4 °F 87% 29.92 in 10.0 mi East 4.6 mph - N/A   Overcast
7:56 PM 48.2 °F 44.6 °F 87% 29.93 in 10.0 mi ESE 5.8 mph - N/A   Mostly Cloudy
8:16 PM 48.2 °F 44.6 °F 87% 29.93 in 10.0 mi ESE 5.8 mph - N/A   Mostly Cloudy
8:36 PM 48.2 °F 44.6 °F 87% 29.93 in 10.0 mi East 9.2 mph - N/A   Mostly Cloudy
8:56 PM 48.2 °F 44.6 °F 87% 29.93 in 10.0 mi East 6.9 mph - N/A   Overcast
9:16 PM 48.2 °F 44.6 °F 87% 29.93 in 10.0 mi SE 6.9 mph - N/A   Overcast
9:36 PM 48.2 °F 44.6 °F 87% 29.94 in 10.0 mi ESE 3.5 mph - N/A   Overcast
9:56 PM 48.2 °F 44.6 °F 87% 29.94 in 10.0 mi ESE 8.1 mph - N/A   Overcast
10:16 PM 48.2 °F 44.6 °F 87% 29.94 in 10.0 mi ESE 6.9 mph - N/A   Overcast
10:36 PM 48.2 °F 44.6 °F 87% 29.94 in 10.0 mi ESE 5.8 mph - N/A   Overcast
10:56 PM 48.2 °F 44.6 °F 87% 29.95 in 10.0 mi SE 4.6 mph - N/A   Overcast
11:16 PM 48.2 °F 44.6 °F 87% 29.95 in 10.0 mi ESE 3.5 mph - N/A   Overcast
11:36 PM 48.2 °F 44.6 °F 87% 29.94 in 10.0 mi East 6.9 mph - N/A   Overcast
11:56 PM 48.2 °F 44.6 °F 87% 29.95 in 10.0 mi East 8.1 mph - N/A   Overcast